User: anonymous   Login
Location: Ottawa
(45.4170°N, 75.7000°W)
Time: 07:24:23
(UTC-05:00)
Language:

Aureole 3 Rocket - Orbit

View from above orbital plane
View from above orbital plane
View from above satellite
View from above satellite

Ground track
Ground track

The orbit data is extracted from the following two-line orbital elements,

1 12849U 81094B   15025.44533217  .00001701  00000-0  16090-3 0   975
2 12849 082.4952 116.7049 0908663 242.4289 108.1742 13.48689092624068
Epoch (UTC): 25 January 2015 10:41:16
Eccentricity: 0.0908663
inclination: 82.4952°
perigee height: 399 km
apogee height: 1754 km
right ascension of ascending node: 116.7049°
argument of perigee: 242.4289°
revolutions per day: 13.48689092
mean anomaly at epoch: 108.1742°
orbit number at epoch: 62406

The dashed part of the orbit path shows where the satellite is in the earth's shadow,  

DLR